When you browse on this site, cookies collect data to enhance your experience and personalize the content and advertising you see.
Visit our Privacy Policy to learn more. By continuing to use the site, you agree to this use of cookies and data.
  • In Österreich
  • Länderverzeichnis
  • Für 7 Tage
  • Wassertemperatur
  • Wetterkarte
  • News
  • Widgets
  • user-avatar
    Anmelden

    Stündliche Wetter Poti

    Heute, 23 Januar, Donnerstag

    Zeit Temperatur Niederschläge Wind Luftdruck Luftfeuchtigkeit
    00:00 +4°C° 0.1 mm 2 m/S 767 mmHg 87%
    01:00 +4°C° 0.2 mm 2 m/S 766 mmHg 89%
    02:00 +3°C° 0.2 mm 3 m/S 765 mmHg 91%
    03:00 +4°C° 0 mm 2 m/S 764 mmHg 94%
    04:00 +3°C° 0.1 mm 3 m/S 764 mmHg 93%
    05:00 +3°C° 0.1 mm 3 m/S 763 mmHg 91%
    06:00 +3°C° 0.1 mm 3 m/S 762 mmHg 90%
    07:00 +3°C° 0.1 mm 4 m/S 762 mmHg 89%
    08:00 +2°C° 0.1 mm 5 m/S 762 mmHg 88%
    09:00 +2°C° 0.1 mm 5 m/S 762 mmHg 88%
    10:00 +3°C° 0.1 mm 5 m/S 761 mmHg 82%
    11:00 +4°C° 0.1 mm 6 m/S 761 mmHg 75%
    12:00 +7°C° 0.1 mm 6 m/S 761 mmHg 69%
    13:00 +7°C° 0.1 mm 6 m/S 760 mmHg 70%
    14:00 +6°C° 0.1 mm 7 m/S 760 mmHg 70%
    15:00 +6°C° 0.1 mm 8 m/S 759 mmHg 70%
    16:00 +5°C° 1.4 mm 8 m/S 760 mmHg 77%
    17:00 +5°C° 1.4 mm 9 m/S 760 mmHg 83%
    18:00 +3°C° 1.4 mm 9 m/S 760 mmHg 90%
    19:00 +3°C° 0.4 mm 9 m/S 761 mmHg 84%
    20:00 +3°C° 0.4 mm 9 m/S 762 mmHg 78%
    21:00 +3°C° 0.4 mm 10 m/S 762 mmHg 72%
    22:00 +3°C° 0.2 mm 10 m/S 763 mmHg 71%
    23:00 +3°C° 0.2 mm 10 m/S 764 mmHg 71%

    Morgen, 24 Januar, Freitag

    Zeit Temperatur Niederschläge Wind Luftdruck Luftfeuchtigkeit
    00:00 +2°C° 0.2 mm 10 m/S 765 mmHg 70%
    01:00 +2°C° 0.1 mm 10 m/S 765 mmHg 69%
    02:00 +2°C° 0.1 mm 10 m/S 766 mmHg 69%
    03:00 +1°C° 0.1 mm 9 m/S 767 mmHg 68%
    04:00 +1°C° 0.1 mm 9 m/S 767 mmHg 67%
    05:00 +1°C° 0.1 mm 9 m/S 768 mmHg 66%
    06:00 +1°C° 0.1 mm 9 m/S 768 mmHg 66%
    07:00 +1°C° 0.2 mm 8 m/S 769 mmHg 66%
    08:00 +1°C° 0.2 mm 8 m/S 769 mmHg 66%
    09:00 +2°C° 0.2 mm 7 m/S 770 mmHg 67%
    10:00 +2°C° 0.4 mm 7 m/S 770 mmHg 65%
    11:00 +2°C° 0.4 mm 8 m/S 770 mmHg 63%
    12:00 +2°C° 0.4 mm 8 m/S 770 mmHg 61%
    13:00 +2°C° 0.3 mm 8 m/S 770 mmHg 63%
    14:00 +2°C° 0.3 mm 8 m/S 770 mmHg 65%
    15:00 +2°C° 0.3 mm 8 m/S 770 mmHg 67%
    16:00 +2°C° 0.1 mm 7 m/S 771 mmHg 66%
    17:00 +2°C° 0.1 mm 7 m/S 772 mmHg 66%
    18:00 0°C° 0.1 mm 7 m/S 772 mmHg 65%
    19:00 +1°C° 0.1 mm 6 m/S 773 mmHg 66%
    20:00 +1°C° 0.1 mm 5 m/S 774 mmHg 67%
    21:00 +1°C° 0.1 mm 4 m/S 775 mmHg 69%
    22:00 +1°C° 0.4 mm 4 m/S 775 mmHg 75%
    23:00 0°C° 0.4 mm 4 m/S 775 mmHg 82%

    übermorgen, 25 Januar, Samstag

    Zeit Temperatur Niederschläge Wind Luftdruck Luftfeuchtigkeit
    00:00 0°C° 0.4 mm 4 m/S 776 mmHg 89%
    01:00 0°C° 0.6 mm 4 m/S 776 mmHg 91%
    02:00 0°C° 0.6 mm 3 m/S 776 mmHg 93%
    03:00 0°C° 0.6 mm 3 m/S 776 mmHg 96%
    04:00 0°C° 0.3 mm 3 m/S 775 mmHg 95%
    05:00 -1°C° 0.3 mm 3 m/S 775 mmHg 95%
    06:00 -1°C° 0.3 mm 3 m/S 775 mmHg 95%
    07:00 -2°C° 0.1 mm 4 m/S 775 mmHg 94%
    08:00 -2°C° 0.1 mm 4 m/S 774 mmHg 93%
    09:00 -3°C° 0.1 mm 4 m/S 774 mmHg 92%
    10:00 -2°C° 0 mm 4 m/S 773 mmHg 89%
    11:00 -1°C° 0 mm 5 m/S 773 mmHg 85%
    12:00 0°C° 0 mm 5 m/S 772 mmHg 82%
    13:00 +1°C° 0 mm 5 m/S 771 mmHg 81%
    14:00 +1°C° 0 mm 5 m/S 771 mmHg 80%
    15:00 +1°C° 0 mm 5 m/S 770 mmHg 79%
    16:00 +1°C° 0 mm 5 m/S 770 mmHg 80%
    17:00 0°C° 0 mm 5 m/S 770 mmHg 82%
    18:00 -1°C° 0 mm 5 m/S 770 mmHg 83%
    19:00 -1°C° 0 mm 5 m/S 770 mmHg 82%
    20:00 -2°C° 0 mm 5 m/S 770 mmHg 82%
    21:00 -2°C° 0 mm 5 m/S 770 mmHg 81%
    22:00 -2°C° 0 mm 5 m/S 770 mmHg 79%
    23:00 -2°C° 0 mm 5 m/S 770 mmHg 78%

    26 Januar, Sonntag

    Zeit Temperatur Niederschläge Wind Luftdruck Luftfeuchtigkeit
    00:00 -4°C° 0 mm 5 m/S 770 mmHg 76%
    01:00 -3°C° 0 mm 4 m/S 770 mmHg 75%
    02:00 -3°C° 0 mm 4 m/S 770 mmHg 74%
    03:00 -3°C° 0 mm 4 m/S 770 mmHg 73%
    04:00 -3°C° 0 mm 4 m/S 770 mmHg 72%
    05:00 -2°C° 0 mm 3 m/S 770 mmHg 72%
    06:00 -2°C° 0 mm 3 m/S 770 mmHg 71%
    07:00 -1°C° 0 mm 3 m/S 770 mmHg 70%
    08:00 0°C° 0 mm 3 m/S 770 mmHg 68%
    09:00 0°C° 0 mm 3 m/S 770 mmHg 67%
    10:00 +3°C° 0 mm 2 m/S 770 mmHg 64%
    11:00 +5°C° 0 mm 2 m/S 770 mmHg 61%
    12:00 +6°C° 0 mm 2 m/S 769 mmHg 58%
    13:00 +8°C° 0 mm 1 m/S 769 mmHg 58%
    14:00 +8°C° 0 mm 1 m/S 769 mmHg 57%
    15:00 +9°C° 0 mm 1 m/S 769 mmHg 56%
    16:00 +7°C° 0 mm 1 m/S 769 mmHg 61%
    17:00 +6°C° 0 mm 1 m/S 770 mmHg 66%
    18:00 +4°C° 0 mm 1 m/S 770 mmHg 70%
    19:00 +4°C° 0 mm 1 m/S 771 mmHg 71%
    20:00 +4°C° 0 mm 1 m/S 771 mmHg 71%
    21:00 +3°C° 0 mm 1 m/S 771 mmHg 72%
    22:00 +3°C° 0 mm 1 m/S 771 mmHg 73%
    23:00 +4°C° 0 mm 1 m/S 771 mmHg 73%

    27 Januar, Montag

    Zeit Temperatur Niederschläge Wind Luftdruck Luftfeuchtigkeit
    00:00 +4°C° 0 mm 1 m/S 772 mmHg 74%
    01:00 +3°C° 0 mm 2 m/S 772 mmHg 76%
    02:00 +3°C° 0 mm 2 m/S 772 mmHg 78%
    03:00 +2°C° 0 mm 3 m/S 772 mmHg 80%
    04:00 +1°C° 0 mm 3 m/S 772 mmHg 81%
    05:00 +1°C° 0 mm 3 m/S 772 mmHg 82%
    06:00 0°C° 0 mm 4 m/S 772 mmHg 82%
    07:00 0°C° 0 mm 4 m/S 772 mmHg 83%
    08:00 +1°C° 0 mm 4 m/S 772 mmHg 83%
    09:00 +1°C° 0 mm 4 m/S 772 mmHg 84%
    10:00 +2°C° 0 mm 5 m/S 772 mmHg 79%
    11:00 +5°C° 0 mm 5 m/S 771 mmHg 74%
    12:00 +6°C° 0 mm 5 m/S 771 mmHg 69%
    13:00 +7°C° 0 mm 5 m/S 770 mmHg 66%
    14:00 +8°C° 0 mm 5 m/S 770 mmHg 64%
    15:00 +8°C° 0 mm 5 m/S 769 mmHg 62%
    16:00 +7°C° 0 mm 5 m/S 770 mmHg 66%
    17:00 +6°C° 0 mm 5 m/S 770 mmHg 71%
    18:00 +5°C° 0 mm 5 m/S 770 mmHg 75%
    19:00 +4°C° 0 mm 6 m/S 770 mmHg 71%
    20:00 +4°C° 0 mm 6 m/S 770 mmHg 67%
    21:00 +4°C° 0 mm 7 m/S 769 mmHg 63%
    22:00 +4°C° 0 mm 7 m/S 769 mmHg 60%
    23:00 +4°C° 0 mm 8 m/S 769 mmHg 57%

    28 Januar, Dienstag

    Zeit Temperatur Niederschläge Wind Luftdruck Luftfeuchtigkeit
    00:00 +4°C° 0 mm 8 m/S 769 mmHg 53%
    01:00 +4°C° 0 mm 8 m/S 769 mmHg 54%
    02:00 +4°C° 0 mm 8 m/S 769 mmHg 54%
    03:00 +3°C° 0 mm 9 m/S 768 mmHg 54%
    04:00 +4°C° 0 mm 8 m/S 768 mmHg 55%
    05:00 +4°C° 0 mm 8 m/S 768 mmHg 57%
    06:00 +4°C° 0 mm 7 m/S 768 mmHg 58%
    07:00 +4°C° 0 mm 7 m/S 768 mmHg 58%
    08:00 +4°C° 0 mm 7 m/S 768 mmHg 58%
    09:00 +4°C° 0 mm 7 m/S 768 mmHg 58%
    10:00 +5°C° 0 mm 6 m/S 768 mmHg 56%
    11:00 +8°C° 0 mm 6 m/S 768 mmHg 54%
    12:00 +9°C° 0 mm 6 m/S 767 mmHg 52%
    13:00 +9°C° 0 mm 5 m/S 767 mmHg 53%
    14:00 +10°C° 0 mm 4 m/S 767 mmHg 54%
    15:00 +11°C° 0 mm 3 m/S 766 mmHg 54%
    16:00 +10°C° 0 mm 3 m/S 766 mmHg 58%
    17:00 +9°C° 0 mm 3 m/S 767 mmHg 62%
    18:00 +7°C° 0 mm 3 m/S 767 mmHg 66%
    19:00 +7°C° 0 mm 3 m/S 767 mmHg 67%
    20:00 +7°C° 0 mm 3 m/S 768 mmHg 67%
    21:00 +7°C° 0 mm 3 m/S 768 mmHg 67%
    22:00 +7°C° 0 mm 2 m/S 768 mmHg 67%
    23:00 +7°C° 0 mm 2 m/S 768 mmHg 67%
    Mehr zeigen